Terminal Aerodrome Forecast
Issued by NWS

Current Version | Previous Version | Text Only | Print | Product List | Glossary On
Versions: 1 2 3 4 5 6 7 8 9 10 11 12 13 14 15 16 17 18 19 20
000
FTUS46 KEKA 291003 AAA
TAFUKI
TAF AMD
KUKI 291003Z 2910/3006 00000KT P6SM FEW250
     FM292000 31005KT P6SM FEW050 SCT080 BKN250
     FM300000 30005KT P6SM VCSH SCT050 OVC080=

USA.gov is the U.S. government's official web portal to all federal, state and local government web resources and services.